Weather History for Kaiser, MO

Change the Weather History Date:

Saturday, January 12, 2013

  Actual Average Record
Temperature  
Mean Temperature 42 °F -  
Max Temperature 57 °F 38 °F 68 °F (2000)
Min Temperature 26 °F 21 °F -2 °F (1997)
Degree Days  
Heating Degree Days 24    
Moisture  
Dew Point 30 °F    
Average Humidity 67    
Maximum Humidity 93    
Minimum Humidity 35    
Precipitation  
Precipitation 0.49 in - - ()
Sea Level Pressure  
Sea Level Pressure 29.94 in    
Wind  
Wind Speed 6 mph (NNW)    
Max Wind Speed 10 mph    
Max Gust Speed 20 mph    
Visibility 9 miles    
Events      
Averages and records for this station are not official NWS values.
T = Trace of Precipitation, MM = Missing Value Source: NWS Daily Summary

Daily Weather History Graph

Daily Weather History Graph

Search for Another Location

Airport:

Trip Planner

Search our weather history database for the weather conditions in past years. The results will help you decide how hot, cold, wet, or windy it might be!

Date:

Astronomy

Jan. 12, 2013 Rise Set
Actual Time 7:26 AM CST 5:11 PM CST
Civil Twilight 6:57 AM CST 5:40 PM CST
Nautical Twilight 6:24 AM CST 6:13 PM CST
Astronomical Twilight 5:52 AM CST 6:44 PM CST
Moon 7:46 AM CST (1/12) 6:39 PM CST (1/12)
Length of Visible Light 10h 43m
Length of Day
9h 45m
New Moon, 1% of the Moon is Illuminated
Jan 12
New Moon
Jan 18
First Quarter
Jan 26
Full
Feb 3
Last Quarter
Feb 10
New

Hourly Weather History & Observations

Time (CST) Temp. Windchill Dew Point Humidity Pressure Visibility Wind Dir Wind Speed Gust Speed Precip Events Conditions
12:15 AM 57.2 °F - 42.8 °F 59% 29.81 in 10.0 mi South 6.9 mph - N/A   Clear
12:35 AM 57.2 °F - 42.8 °F 59% 29.81 in 10.0 mi South 8.1 mph - N/A   Clear
12:55 AM 55.4 °F - 42.8 °F 63% 29.82 in 10.0 mi South 5.8 mph - N/A   Clear
1:15 AM 53.6 °F - 42.8 °F 67% 29.83 in 10.0 mi SE 5.8 mph - N/A   Clear
1:35 AM 53.6 °F - 42.8 °F 67% 29.83 in 10.0 mi SE 4.6 mph - N/A   Clear
1:55 AM 53.6 °F - 42.8 °F 67% 29.84 in 10.0 mi SE 5.8 mph - N/A   Partly Cloudy
2:15 AM 53.6 °F - 42.8 °F 67% 29.84 in 10.0 mi SSE 4.6 mph - N/A   Partly Cloudy
2:35 AM 53.6 °F - 42.8 °F 67% 29.86 in 10.0 mi SSE 4.6 mph - N/A   Mostly Cloudy
2:55 AM 53.6 °F - 42.8 °F 67% 29.86 in 10.0 mi SSE 3.5 mph - N/A   Overcast
3:15 AM 51.8 °F - 42.8 °F 71% 29.86 in 10.0 mi South 3.5 mph - N/A   Partly Cloudy
3:35 AM 53.6 °F - 44.6 °F 72% 29.86 in 10.0 mi WSW 6.9 mph - N/A   Clear
3:55 AM 57.2 °F - 44.6 °F 63% 29.86 in 10.0 mi SW 9.2 mph - N/A   Mostly Cloudy
4:15 AM 57.2 °F - 44.6 °F 63% 29.85 in 10.0 mi WSW 4.6 mph - N/A   Overcast
4:35 AM 57.2 °F - 44.6 °F 63% 29.87 in 10.0 mi WSW 5.8 mph - N/A   Overcast
4:55 AM 57.2 °F - 44.6 °F 63% 29.88 in 10.0 mi West 5.8 mph - N/A   Overcast
5:15 AM 57.2 °F - 44.6 °F 63% 29.89 in 10.0 mi West 9.2 mph - N/A   Overcast
5:35 AM 55.4 °F - 42.8 °F 63% 29.91 in 10.0 mi WNW 8.1 mph - N/A   Overcast
5:55 AM 55.4 °F - 41.0 °F 58% 29.91 in 10.0 mi NNW 6.9 mph - N/A   Overcast
6:15 AM 53.6 °F - 30.2 °F 41% 29.91 in 10.0 mi NNW 4.6 mph - N/A   Mostly Cloudy
6:35 AM 53.6 °F - 26.6 °F 35% 29.91 in 10.0 mi NNW 4.6 mph - N/A   Partly Cloudy
6:55 AM 51.8 °F - 26.6 °F 38% 29.91 in 10.0 mi North 8.1 mph - N/A   Partly Cloudy
7:15 AM 51.8 °F - 24.8 °F 35% 29.95 in 9.0 mi NW 5.8 mph - N/A   Partly Cloudy
7:35 AM 46.4 °F 41.9 °F 28.4 °F 50% 29.96 in 8.0 mi North 9.2 mph 17.3 mph N/A   Mostly Cloudy
7:55 AM 44.6 °F 39.2 °F 30.2 °F 57% 29.97 in 9.0 mi North 10.4 mph 16.1 mph N/A   Overcast
8:15 AM 44.6 °F 40.2 °F 30.2 °F 57% 29.99 in 10.0 mi NW 8.1 mph 16.1 mph N/A   Overcast
8:35 AM 42.8 °F 38.0 °F 30.2 °F 61% 29.99 in 10.0 mi North 8.1 mph - N/A   Mostly Cloudy
8:55 AM 39.2 °F 33.6 °F 30.2 °F 70% 30.01 in 10.0 mi North 8.1 mph - N/A   Clear
9:15 AM 39.2 °F 33.0 °F 28.4 °F 65% 30.02 in 10.0 mi NNW 9.2 mph 17.3 mph N/A   Clear
9:35 AM 39.2 °F 33.6 °F 24.8 °F 56% 30.01 in 10.0 mi North 8.1 mph 16.1 mph N/A   Clear
9:55 AM 39.2 °F 32.5 °F 24.8 °F 56% 30.03 in 10.0 mi North 10.4 mph 19.6 mph N/A   Partly Cloudy
10:15 AM 37.4 °F 30.8 °F 24.8 °F 60% 30.04 in 10.0 mi North 9.2 mph - N/A   Mostly Cloudy
10:35 AM 39.2 °F 34.2 °F 24.8 °F 56% 30.05 in 10.0 mi North 6.9 mph - N/A   Overcast
10:55 AM 39.2 °F 32.5 °F 24.8 °F 56% 30.03 in 10.0 mi NNW 10.4 mph 16.1 mph N/A   Overcast
11:15 AM 39.2 °F 34.2 °F 24.8 °F 56% 30.02 in 10.0 mi North 6.9 mph 16.1 mph N/A   Overcast
11:55 AM 39.2 °F 32.5 °F 24.8 °F 56% 29.99 in 10.0 mi North 10.4 mph - N/A   Overcast
12:15 PM 39.2 °F 34.2 °F 24.8 °F 56% 29.99 in 10.0 mi NNW 6.9 mph - N/A   Overcast
12:35 PM 39.2 °F 33.0 °F 23.0 °F 52% 30.00 in 10.0 mi North 9.2 mph - N/A   Overcast
12:55 PM 37.4 °F 32.1 °F 21.2 °F 52% 30.01 in 10.0 mi North 6.9 mph - N/A   Overcast
1:35 PM 37.4 °F 31.4 °F 19.4 °F 48% 29.96 in 10.0 mi North 8.1 mph - N/A   Overcast
1:55 PM 37.4 °F 32.8 °F 19.4 °F 48% 29.97 in 10.0 mi NNW 5.8 mph - N/A   Overcast
2:15 PM 37.4 °F 30.8 °F 19.4 °F 48% 29.97 in 10.0 mi North 9.2 mph - N/A   Overcast
2:35 PM 35.6 °F 30.7 °F 19.4 °F 52% 29.98 in 10.0 mi North 5.8 mph - N/A   Overcast
2:55 PM 35.6 °F 30.7 °F 23.0 °F 60% 29.94 in 10.0 mi North 5.8 mph - N/A   Overcast
3:15 PM 33.8 °F 29.6 °F 24.8 °F 70% 29.94 in 10.0 mi North 4.6 mph - N/A   Overcast
3:35 PM 33.8 °F 28.6 °F 24.8 °F 70% 29.93 in 10.0 mi NNE 5.8 mph - N/A   Overcast
3:55 PM 33.8 °F 27.7 °F 26.6 °F 75% 29.92 in 10.0 mi North 6.9 mph - N/A   Overcast
4:15 PM 33.8 °F 28.6 °F 24.8 °F 70% 29.94 in 10.0 mi NNW 5.8 mph - 0.01 in   Overcast
4:35 PM 32.0 °F 26.4 °F 26.6 °F 80% 29.96 in 2.0 mi North 5.8 mph - 0.06 in   Overcast
4:55 PM 32.0 °F 24.2 °F 24.8 °F 75% 29.96 in 4.0 mi NW 9.2 mph 18.4 mph 0.09 in   Overcast
5:15 PM 30.2 °F 23.4 °F 24.8 °F 80% 29.96 in 2.5 mi NNW 6.9 mph 17.3 mph 0.06 in   Overcast
5:35 PM 30.2 °F 21.9 °F 26.6 °F 86% 29.94 in 5.0 mi North 9.2 mph 18.4 mph 0.10 in   Overcast
5:55 PM 30.2 °F - 26.6 °F 86% 29.94 in 3.0 mi Calm Calm - 0.16 in   Overcast
6:15 PM 30.2 °F - 24.8 °F 80% 29.95 in 5.0 mi Calm Calm - 0.03 in   Overcast
6:35 PM 30.2 °F - 24.8 °F 80% 29.94 in 6.0 mi Calm Calm - 0.06 in   Overcast
7:15 PM 28.4 °F - 24.8 °F 86% 29.95 in 5.0 mi Calm Calm - 0.01 in   Overcast
7:35 PM 28.4 °F - 24.8 °F 86% 29.97 in 5.0 mi Calm Calm - 0.05 in   Overcast
7:55 PM 28.4 °F - 24.8 °F 86% 29.97 in 5.0 mi Calm Calm - 0.07 in   Overcast
8:15 PM 28.4 °F - 26.6 °F 93% 29.98 in 3.0 mi Calm Calm - 0.02 in   Overcast
8:35 PM 28.4 °F - 26.6 °F 93% 29.97 in 1.5 mi Calm Calm - 0.03 in   Unknown
8:55 PM 30.2 °F - 26.6 °F 86% 30.00 in 4.0 mi Calm Calm - 0.05 in   Unknown
9:15 PM 30.2 °F - 26.6 °F 86% 30.00 in 4.0 mi Calm Calm - 0.03 in   Unknown
9:35 PM 30.2 °F - 26.6 °F 86% 30.00 in 4.0 mi Calm Calm - 0.04 in   Unknown
9:55 PM 28.4 °F - 24.8 °F 86% 29.99 in 7.0 mi Calm Calm - 0.05 in   Unknown
10:15 PM 28.4 °F - 23.0 °F 80% 29.98 in 10.0 mi Calm Calm - N/A   Unknown
10:35 PM 26.6 °F - 24.8 °F 93% 29.98 in 10.0 mi Calm Calm - N/A   Unknown
10:55 PM 26.6 °F - 23.0 °F 86% 29.99 in 10.0 mi Calm Calm - 0.01 in   Unknown
11:15 PM 26.6 °F - 23.0 °F 86% 30.00 in 10.0 mi Calm Calm - N/A   Unknown
11:35 PM 26.6 °F - 21.2 °F 80% 29.99 in 10.0 mi Calm Calm - N/A   Unknown
11:55 PM 26.6 °F - 21.2 °F 80% 30.01 in 10.0 mi Calm Calm - N/A   Unknown